Tracking 19476 objects as of 17-Jan-2019
HD Live streaming from Space Station
objects crossing your sky now

CLEMENTINE

Track CLEMENTINE now!
10-day predictions
CLEMENTINE is classified as:


NORAD ID: 25978
Int'l Code: 1999-064B
Perigee: 579.2 km
Apogee: 590.9 km
Inclination: 98.2 °
Period: 96.2 minutes
Semi major axis: 6956 km
RCS: 0.785 m2 (medium)
Launch date: December 3, 1999
Source: France (FR)
Launch site: FRENCH GUIANA (FRGUI)

Intelligence gathering, part of an experimental eavesdropping program.
aabbcc
Your satellite tracking list
Your tracking list is empty




NASA's NSSDC Master Catalog

Two Line Element Set (TLE):
1 25978U 99064B   19016.77575400  .00000741  00000-0  70899-4 0  9990
2 25978  98.1607 269.5370 0008438 165.8091 194.3367 14.96443563 37546
Source of the keplerian elements: AFSPC